Date String (YYYY-MM-DD hh:mm:ss) UTC,Instrument flags,Ambient pressure (hPa),Sample flow (lpm),Bypass flow (lpm),Sample temperature (°C),Ambient temperature (°C),ASC tube jacket temperature (°C),LED temperature (°C),Box temperature (°C),Sample RH (%),Span deviation,Mass concentration (μg/m³),Mass concentration (μg/m³),Mass concentration (μg/m³)
DateTimeUTC,F1_M11,P_M11,Q1_M11,Q2_M11,T1_M11,T2_M11,T3_M11,T4_M11,T5_M11,U1_M11,ZSPAN_M11,X0_M11,X2_M11,X1_M11
2022-05-31 00:00:00,,0818.1,5.01,0.00,27.3,26.3,00.0,36.2,29.2,11.2,0000.0,0002.07,0000.76,0000.44
2022-05-31 00:01:00,,0818.0,4.99,0.00,27.3,26.3,00.0,36.2,29.2,11.2,0000.0,0002.71,0000.77,0000.43
2022-05-31 00:02:00,,0817.9,5.00,0.00,27.3,26.3,00.0,36.2,29.2,10.8,0000.0,0002.91,0000.75,0000.42
2022-05-31 00:03:00,,0817.9,4.99,0.00,27.3,26.3,00.0,36.2,29.2,10.5,0000.0,0002.88,0000.73,0000.41
2022-05-31 00:04:00,,0818.0,5.00,0.00,27.3,26.3,00.0,36.2,29.2,10.3,0000.0,0002.80,0000.69,0000.40
2022-05-31 00:05:00,,0818.0,5.00,0.00,27.3,26.3,00.0,36.2,29.2,10.5,0000.0,0002.74,0000.68,0000.40
2022-05-31 00:06:00,,0818.0,5.01,0.00,27.3,26.3,00.0,36.2,29.2,10.6,0000.0,0002.93,0000.73,0000.41
2022-05-31 00:07:00,,0818.0,4.99,0.00,27.3,26.2,00.0,36.2,29.2,10.2,0000.0,0002.91,0000.75,0000.40
2022-05-31 00:08:00,,0818.2,4.99,0.00,27.3,26.2,00.0,36.2,29.2,10.5,0000.0,0002.62,0000.78,0000.40
2022-05-31 00:09:00,,0818.1,5.01,0.00,27.3,26.2,00.0,36.2,29.2,10.7,0000.0,0003.61,0000.81,0000.40
2022-05-31 00:10:00,,0818.2,5.00,0.00,27.3,26.2,00.0,36.2,29.2,10.3,0000.0,0003.80,0000.80,0000.39
2022-05-31 00:11:00,,0818.3,5.00,0.00,27.3,26.2,00.0,36.2,29.2,10.4,0000.0,0003.77,0000.79,0000.39
2022-05-31 00:12:00,,0818.3,5.00,0.00,27.3,26.2,00.0,36.2,29.2,10.8,0000.0,0003.19,0000.75,0000.38
2022-05-31 00:13:00,,0818.4,4.99,0.00,27.3,26.3,00.0,36.2,29.2,10.7,0000.0,0004.10,0000.70,0000.37
2022-05-31 00:14:00,,0818.4,5.01,0.00,27.3,26.2,00.0,36.2,29.2,10.8,0000.0,0004.30,0000.67,0000.37
2022-05-31 00:15:00,,0818.4,5.00,0.00,27.3,26.2,00.0,36.2,29.2,10.8,0000.0,0004.20,0000.66,0000.37
2022-05-31 00:16:00,,0818.4,4.99,0.00,27.3,26.3,00.0,36.2,29.2,11.1,0000.0,0004.23,0000.66,0000.36
2022-05-31 00:17:00,,0818.5,5.00,0.00,27.3,26.3,00.0,36.2,29.2,11.2,0000.0,0004.25,0000.65,0000.36
2022-05-31 00:18:00,,0818.5,5.00,0.00,27.3,26.3,00.0,36.2,29.2,11.3,0000.0,0004.72,0000.65,0000.37
2022-05-31 00:19:00,,0818.5,5.00,0.00,27.3,26.3,00.0,36.2,29.2,11.1,0000.0,0004.86,0000.60,0000.37
2022-05-31 00:20:00,,0818.5,5.00,0.00,27.3,26.3,00.0,36.2,29.2,11.3,0000.0,0003.92,0000.56,0000.36
2022-05-31 00:21:00,,0818.4,5.01,0.00,27.3,26.3,00.0,36.3,29.2,10.8,0000.0,0003.63,0000.56,0000.37
2022-05-31 00:22:00,,0818.4,5.01,0.00,27.3,26.3,00.0,36.3,29.2,10.9,0000.0,0003.92,0000.56,0000.38
2022-05-31 00:23:00,,0818.5,5.00,0.00,27.3,26.3,00.0,36.3,29.2,11.0,0000.0,0004.89,0000.57,0000.38
2022-05-31 00:24:00,,0818.6,4.99,0.00,27.3,26.3,00.0,36.3,29.2,10.5,0000.0,0003.50,0000.60,0000.39
2022-05-31 00:25:00,,0818.8,5.00,0.00,27.3,26.3,00.0,36.3,29.2,10.9,0000.0,0003.37,0000.62,0000.39
2022-05-31 00:26:00,,0818.7,5.00,0.00,27.3,26.4,00.0,36.3,29.2,10.8,0000.0,0003.36,0000.63,0000.40
2022-05-31 00:27:00,,0818.7,4.99,0.00,27.3,26.4,00.0,36.3,29.2,11.2,0000.0,0003.32,0000.62,0000.39
2022-05-31 00:28:00,,0818.8,4.99,0.00,27.3,26.4,00.0,36.3,29.2,11.3,0000.0,0003.21,0000.58,0000.40
2022-05-31 00:29:00,,0818.8,5.00,0.00,27.4,26.4,00.0,36.3,29.2,11.6,0000.0,0002.63,0000.57,0000.40
2022-05-31 00:30:00,,0818.8,5.01,0.00,27.4,26.4,00.0,36.3,29.2,11.6,0000.0,0002.41,0000.62,0000.41
2022-05-31 00:31:00,,0818.8,5.00,0.00,27.4,26.4,00.0,36.3,29.2,11.6,0000.0,0002.49,0000.66,0000.43
2022-05-31 00:32:00,,0818.8,4.99,0.00,27.4,26.4,00.0,36.3,29.3,10.6,0000.0,0002.56,0000.69,0000.44
2022-05-31 00:33:00,,0818.8,5.01,0.00,27.4,26.4,00.0,36.3,29.3,10.3,0000.0,0002.28,0000.69,0000.45
2022-05-31 00:34:00,,0818.8,5.00,0.00,27.4,26.4,00.0,36.3,29.3,10.6,0000.0,0001.32,0000.70,0000.45
2022-05-31 00:35:00,,0818.8,5.00,0.00,27.4,26.4,00.0,36.3,29.3,11.1,0000.0,0001.36,0000.72,0000.46
2022-05-31 00:36:00,,0818.8,4.99,0.00,27.4,26.4,00.0,36.3,29.3,11.2,0000.0,0001.38,0000.73,0000.46
2022-05-31 00:37:00,,0818.8,4.99,0.00,27.4,26.4,00.0,36.3,29.3,11.7,0000.0,0001.38,0000.72,0000.47
2022-05-31 00:38:00,,0818.8,5.00,0.00,27.4,26.4,00.0,36.3,29.3,11.8,0000.0,0001.47,0000.73,0000.48
2022-05-31 00:39:00,,0818.9,5.00,0.00,27.4,26.5,00.0,36.3,29.3,11.3,0000.0,0001.39,0000.72,0000.48
2022-05-31 00:40:00,,0818.9,5.00,0.00,27.4,26.5,00.0,36.3,29.3,11.0,0000.0,0001.36,0000.73,0000.47
2022-05-31 00:41:00,,0818.9,5.01,0.00,27.4,26.5,00.0,36.3,29.3,10.7,0000.0,0001.30,0000.69,0000.45
2022-05-31 00:42:00,,0818.9,5.01,0.00,27.4,26.5,00.0,36.3,29.3,10.6,0000.0,0001.22,0000.65,0000.43
2022-05-31 00:43:00,,0818.9,4.99,0.00,27.4,26.5,00.0,36.3,29.3,11.2,0000.0,0001.18,0000.62,0000.42
2022-05-31 00:44:00,,0818.9,5.00,0.00,27.4,26.5,00.0,36.3,29.3,11.0,0000.0,0001.23,0000.63,0000.42
2022-05-31 00:45:00,,0819.0,5.01,0.00,27.4,26.5,00.0,36.3,29.3,11.0,0000.0,0001.26,0000.63,0000.41
2022-05-31 00:46:00,,0819.0,4.98,0.00,27.4,26.5,00.0,36.3,29.3,11.1,0000.0,0001.20,0000.60,0000.39
2022-05-31 00:47:00,,0819.0,5.00,0.00,27.4,26.5,00.0,36.3,29.3,10.7,0000.0,0001.17,0000.58,0000.38
2022-05-31 00:48:00,,0818.9,5.00,0.00,27.5,26.5,00.0,36.3,29.4,10.3,0000.0,0001.13,0000.57,0000.38
2022-05-31 00:49:00,,0819.0,4.99,0.00,27.5,26.5,00.0,36.3,29.4,10.2,0000.0,0001.04,0000.55,0000.36
2022-05-31 00:50:00,,0819.0,5.00,0.00,27.5,26.5,00.0,36.3,29.4,10.0,0000.0,0001.12,0000.59,0000.36
2022-05-31 00:51:00,,0819.0,5.00,0.00,27.5,26.5,00.0,36.4,29.4,10.1,0000.0,0001.16,0000.59,0000.35
2022-05-31 00:52:00,,0819.0,5.00,0.00,27.5,26.5,00.0,36.4,29.4,10.3,0000.0,0001.18,0000.61,0000.35
2022-05-31 00:53:00,,0818.9,4.99,0.00,27.5,26.5,00.0,36.4,29.4,10.2,0000.0,0001.16,0000.60,0000.35
2022-05-31 00:54:00,,0819.0,5.00,0.00,27.5,26.6,00.0,36.4,29.4,10.1,0000.0,0001.89,0000.60,0000.35
2022-05-31 00:55:00,,0819.0,4.99,0.00,27.5,26.6,00.0,36.4,29.4,10.0,0000.0,0002.89,0000.58,0000.35
2022-05-31 00:56:00,,0819.0,5.00,0.00,27.6,26.6,00.0,36.4,29.5,10.7,0000.0,0002.81,0000.56,0000.36
2022-05-31 00:57:00,,0819.0,5.00,0.00,27.6,26.6,00.0,36.4,29.5,10.7,0000.0,0002.81,0000.57,0000.36
2022-05-31 00:58:00,,0819.0,4.99,0.00,27.6,26.6,00.0,36.4,29.4,10.7,0000.0,0002.83,0000.59,0000.38
2022-05-31 00:59:00,,0819.0,4.99,0.00,27.6,26.6,00.0,36.4,29.5,10.6,0000.0,0002.81,0000.58,0000.38
